Regional Weather Roundup
Issued by NWS Sioux Falls, SD

Home | Current Version | Previous Version | Text Only | Print | Product List | Glossary Off
Versions: 1 2 3 4 5 6 7 8 9 10 11 12 13 14 15 16 17 18 19 20 21 22 23 24 25 26 27 28 29 30 31 32 33 34 35 36 37 38 39 40 41 42 43 44 45 46 47 48 49 50

000
ASUS43 KFSD 010310
RWRFSD

WEATHER ROUNDUP FOR SE SOUTH DAKOTA/SW MINNESOTA/NW IOWA
NATIONAL WEATHER SERVICE SIOUX FALLS SD
900 PM CST SAT JAN 31 2015

NOTE: "FAIR" INDICATES FEW OR NO CLOUDS BELOW 12,000 FEET WITH NO
SIGNIFICANT WEATHER AND OR OBSTRUCTIONS TO VISIBILITY.


SDZ038>040-050-052>070-010400-
SOUTHEAST SOUTH DAKOTA

CITY           SKY/WX    TMP DP  RH WIND       PRES   REMARKS
CHAMBERLAIN    LGT SNOW  16  14  90 N18       30.10R WCI   0
HURON          CLOUDY    17   7  64 NE20G25   30.16R WCI   1
MADISON        LGT SNOW  21  21 100 NE22G28   30.05F WCI   5
MITCHELL       FRZ RAIN  22  20  92 N21G28    30.10S FOG     WCI   6
SIOUX FALLS    LGT SNOW  24  21  88 NE21      30.03F VSB 3/4 WCI   9
WINNER         LGT SNOW  19  15  84 N16       30.07S VSB 3/4 WCI   4
YANKTON        CLOUDY    27  25  93 NE17      30.00F WCI  14
$$

MNZ071-072-080-081-089-090-097-098-010400-
SOUTHWEST MINNESOTA

CITY           SKY/WX    TMP DP  RH WIND       PRES   REMARKS
FAIRMONT       CLOUDY    25  21  86 NE18      30.07S WCI  11
JACKSON        LGT SNOW  27  23  86 NE17G25   30.06S WCI  14
LUVERNE        LGT SNOW  27  23  86 NE15G22   30.05S WCI  15
MARSHALL       CLOUDY    25  18  74 NE13      30.15S WCI  13
MONTEVIDEO     CLOUDY    23  12  63 E13G18    30.19S WCI  11
PIPESTONE      LGT SNOW  23  21  93 E10G16    30.05S WCI  12
REDWOOD FALLS  CLOUDY    25  19  78 NE6       30.15S WCI  18
TRACY          CLOUDY    26  21  84 NE13G18   30.11F WCI  14
WINDOM         LGT SNOW  25  21  86 NE14G20   30.07F WCI  13
WORTHINGTON    CLOUDY    27  21  80 NE20      30.05F WCI  13
$$

IAZ001>003-012>014-020>022-031-032-NEZ013-014-SDZ071-010400-
NORTHWEST IOWA

CITY           SKY/WX    TMP DP  RH WIND       PRES   REMARKS
CHEROKEE       LGT SNOW  30  30 100 NE12      29.99S WCI  20
DENISON        LGT SNOW  32  32 100 E8        29.93F WCI  25
ESTHERVILLE    LGT SNOW  25  24  96 NE21      30.04F VSB 1   WCI  11
LE MARS        LGT SNOW  30  28  93 NE15      29.99F WCI  19
ORANGE CITY    LGT SNOW  28  27  93 E16       29.99S WCI  17
SHELDON        MIX PCPN  27  27 100 NE23G32   29.99F WCI  12
SIOUX CITY     LGT SNOW  31  28  89 E15       29.96F VSB 1   WCI  20
SPENCER        LGT SNOW  28  25  88 NE20G28   30.02F VSB 1   WCI  15
STORM LAKE     LGT SNOW  30  28  93 NE17      29.97F VSB 3/4 WCI  18
$$

ABBREVIATIONS USED IN REMARKS
   TC - TEMPERATURE IN CELSIUS
  WCI - WIND CHILL INDEX
   HX - HEAT INDEX
  VSB - VISIBILITY




USA.gov is the U.S. government's official web portal to all federal, state and local government web resources and services.